User: anonymous   Login
Location: Unspecified
(0.0000°N, 0.0000°E)
Time: 05:16:05
(UTC+00:00)
Language:

Sunsat (SO-35) - Orbit

View from above orbital plane
View from above orbital plane
View from above satellite
View from above satellite

Ground track
Ground track

The orbit data is extracted from the following two-line orbital elements,

1 25636U 99008C   18320.53346332 +.00000032 +00000-0 +15574-4 0  9992
2 25636 096.4746 091.4440 0147028 121.1191 240.4524 14.44669729039207
Epoch (UTC): 16 November 2018 12:48:11
Eccentricity: 0.0147028
inclination: 96.4746°
perigee height: 638 km
apogee height: 848 km
right ascension of ascending node: 91.4440°
argument of perigee: 121.1191°
revolutions per day: 14.44669729
mean anomaly at epoch: 240.4524°
orbit number at epoch: 3920

The dashed part of the orbit path shows where the satellite is in the earth's shadow,  

DLR